Hourly Weather Roundup
Issued by NWS Central Illinois

Home | Current Version | Previous Version | Text Only | Print | Product List | Glossary On
Versions: 1 2 3 4 5 6 7 8 9 10 11 12 13 14 15 16 17 18 19 20 21 22 23 24 25 26 27 28 29 30 31 32 33 34 35 36 37 38 39 40 41 42 43 44 45 46 47 48 49 50
000
NZUS43 KILX 041810
HWRILX

AREA WEATHER ROUNDUP
NATIONAL WEATHER SERVICE, LINCOLN IL
100 PM CDT SAT JUL 04 2015


CITY           SKY/WX    TMP DP  RH WIND       PRES   REMARKS
BLOOMINGTON    MOSUNNY   78  62  57 S7        30.05S
6HR MIN TEMP:  62; 6HR MAX TEMP:  78;

CHAMPAIGN      PTSUNNY   77  60  55 SW3       30.04S
6HR MIN TEMP:  61; 6HR MAX TEMP:  79;

DANVILLE       SUNNY     77  60  56 CALM      30.01S
6HR MIN TEMP:  58; 6HR MAX TEMP:  77;

DECATUR        PTSUNNY   77  59  53 S6        30.03F
6HR MIN TEMP:  59; 6HR MAX TEMP:  78;

EFFINGHAM      SUNNY     78  58  49 SE3       30.04F
FLORA          SUNNY     78  63  60 CALM      30.03S
6HR MIN TEMP:  65; 6HR MAX TEMP:  78;

GALESBURG      MOSUNNY   78  61  54 SW3       30.03F HX  80
JACKSONVILLE   SUNNY     80  64  58 SW6       30.03S HX  81
6HR MIN TEMP:  64; 6HR MAX TEMP:  80;

LACON          SUNNY     78  56  46 S7        30.02S
6HR MIN TEMP:  60; 6HR MAX TEMP:  78;

LAWRENCEVILLE  PTSUNNY   79  66  64 N3        30.02F HX  81
6HR MIN TEMP:  66; 6HR MAX TEMP:  79;

LITCHFIELD     MOSUNNY   78  60  54 N5        30.03F
$$


CITY           SKY/WX    TMP DP  RH WIND       PRES   REMARKS
LINCOLN        MOSUNNY   80  56  43 SE5       30.03S HX  80
6HR MIN TEMP:  60; 6HR MAX TEMP:  81;

MACOMB         PTSUNNY   76  62  59 S5        30.05S
MATTOON        MOSUNNY   77  61  57 CALM      30.02F
6HR MIN TEMP:  61; 6HR MAX TEMP:  78;

MT CARMEL AP   MOSUNNY   81  63  54 NE3       30.01F HX  82
OLNEY-NOBLE AP MOSUNNY   77  64  65 NE3       30.02S
PARIS          MOSUNNY   77  62  58 CALM      30.04F
6HR MIN TEMP:  61; 6HR MAX TEMP:  78;

PEORIA         SUNNY     81  60  48 VRB6      30.03S HX  82
6HR MIN TEMP:  64; 6HR MAX TEMP:  81;

PONTIAC        SUNNY     77  61  56 CALM      30.03F
RANTOUL        MOSUNNY   79  63  57 SW3       30.04S HX  80
6HR MIN TEMP:  62; 6HR MAX TEMP:  79;

ROBINSON       MOSUNNY   77  64  62 NW3       30.03S
6HR MIN TEMP:  64; 6HR MAX TEMP:  79;

SPRINGFIELD    PTSUNNY   80  62  54 VRB3      30.03F HX  81
6HR MIN TEMP:  63; 6HR MAX TEMP:  80;

TAYLORVILLE    MOSUNNY   75  61  60 CALM      30.03F
$$

...REGIONAL REPORTS...


CITY           SKY/WX    TMP DP  RH WIND       PRES   REMARKS
CHICAGO O`HARE MOSUNNY   79  56  45 W7        30.00F HX  80
KANKAKEE       PTSUNNY   80  63  54 SW6       30.03S HX  81
MOLINE         SUNNY     78  59  51 CALM      30.01F
MOUNT STERLING NOT AVBL
MOUNT VERNON   MOSUNNY   79  63  57 E5        30.03S HX  80
PITTSFIELD     PTSUNNY   79  63  57 W6        30.04S HX  81
QUINCY         MOSUNNY   79  61  53 W7        30.02F HX  80
ROCKFORD       MOSUNNY   80  60  50 CALM      30.02F HX  81
$$


CITY           SKY/WX    TMP DP  RH WIND       PRES   REMARKS
BURLINGTON     MOSUNNY   76  61  59 VRB7      30.02F
CEDAR RAPIDS   SUNNY     76  64  66 VRB3      30.01F
DES MOINES     MOSUNNY   80  59  48 S9        30.00F HX  81
KIRKSVILLE     SUNNY     78  61  55 VRB7      30.03F HX  80
OTTUMWA        SUNNY     76  62  62 SW9       30.01F
ST LOUIS       MOSUNNY   82  61  48 SE5       30.03S HX  83
$$


CITY           SKY/WX    TMP DP  RH WIND       PRES   REMARKS
TERRE HAUTE    PTSUNNY   78  61  55 CALM      30.02F HX  80
EVANSVILLE     PTSUNNY   80  66  62 NE6       30.01S HX  82
INDIANAPOLIS   MOSUNNY   78  57  48 NW3       30.01F
LAFAYETTE      SUNNY     77  59  53 VRB3      30.02F
MADISON        MOSUNNY   79  57  46 VRB7      29.99S HX  80
MILWAUKEE      MOSUNNY   79  58  48 CALM      29.99S HX  80
$$




USA.gov is the U.S. government's official web portal to all federal, state and local government web resources and services.